Hovedside
METAR-TAF:

METAR-TAF

Lufthavner :

Bowers Field

Ellensburg, Washington, USA

breddegrad: 47-02-01N, lengdegrad: 120-31-45W, høyde over havet: 536 m

Gjeldene værobservasjon

Denne rapporten ble laget for 1 time og 8 minutter siden, klokken 15:53 UTC
Flau vind
Temperatur 4°C
Luftfuktighet 81%
Trykk 1028 hPa
Sikt: 8.0 km
Skyfri himmel
dis

METAR: KELN 191553Z AUTO 00000KT 5SM HZ CLR 04/01 A3037 RMK AO2 SLP294 T00440011

Tid: 10:01 (17:01 UTC)


TAF: fraværende

Værobservasjoner og værvarsel for over 4000 flyplasser (METAR- og TAF-rapporter).

Tilgjengelige stasjoner er representert av de røde og gule prikkene på kartet.

Hold musepekeren over prikken for å se navnet på stasjonen.

Klikk så for å se værobservasjoner og -varsler.

For å forandre kartet kan du klikke på den grønne knappen med svart kryss for å zoome inn, på den grønne knappen med strek for å zoome ut, eller på de grønne pilene for å se tilstøtende kart.


METAR-TAF: